Weather reports worldwide

Advertisment
Valley, United Kingdom (3302): temperature & dewpoint: 09.09.2019 09:00:00 - 15.09.2019 09:00:00 (BST)Valley, United Kingdom (3302): temperature -20cm & temperature -100cm: 09.09.2019 09:00:00 - 15.09.2019 09:00:00 (BST)Valley, United Kingdom (3302): wind speed & gusts: 09.09.2019 09:00:00 - 15.09.2019 09:00:00 (BST)Valley, United Kingdom (3302): wind direction: 09.09.2019 09:00:00 - 15.09.2019 09:00:00 (BST)Valley, United Kingdom (3302): reduced air pressure: 09.09.2019 09:00:00 - 15.09.2019 09:00:00 (BST)Valley, United Kingdom (3302): visibility: 09.09.2019 09:00:00 - 15.09.2019 09:00:00 (BST)Valley, United Kingdom (3302): sunshine duration: 09.09.2019 09:00:00 - 15.09.2019 09:00:00 (BST)Valley, United Kingdom (3302): precipitation: 09.09.2019 09:00:00 - 15.09.2019 09:00:00 (BST)
Date & Time tt [°C] td [°C] tt -20cm [°C] tt -100cm [°C] ff [km/h] ff [kn] fx [km/h] fx [kn] dd ppp [hPa] vv [km] sd [min] rr [mm]
15.09.2019 09:00:00 15,4 14,4 - - 15 8 - - W 1024,8 2,3 0 0,0
15.09.2019 08:00:00 16,2 14,1 - - 18 10 - - WSW 1024,2 27 0 0,0
15.09.2019 07:00:00 15,7 14,0 - - 18 10 - - WSW 1024,0 10 0 0,0
15.09.2019 06:00:00 15,9 13,9 - - 18 10 - - WSW 1024,0 15 0 0,0
15.09.2019 05:00:00 16,0 13,6 - - 18 10 - - WSW 1024,0 19 0 0,0
15.09.2019 04:00:00 15,8 13,8 - - 22 12 - - SW 1024,2 11 0 0,0
15.09.2019 03:00:00 15,8 13,9 - - 26 14 - - SW 1024,5 11 0 0,0
15.09.2019 02:00:00 15,7 14,0 - - 31 17 - - SSW 1025,0 9 0 0,0
15.09.2019 01:00:00 15,6 13,9 - - 31 17 - - SSW 1025,4 9 - 0,0
15.09.2019 00:00:00 15,2 13,5 - - 34 18 - - SSW 1025,9 10 0 0,0
14.09.2019 23:00:00 15,1 13,4 - - 35 19 48 26 SSW 1026,3 10 0 0,0
14.09.2019 22:00:00 15,1 13,4 - - 37 20 50 27 SSW 1026,5 10 0 0,0
14.09.2019 21:00:00 15,1 13,0 - - 37 20 48 26 SSW 1027,0 11 0 0,0
14.09.2019 20:00:00 15,4 13,0 - - 39 21 52 28 SSW 1026,7 13 12 0,0
14.09.2019 19:00:00 15,9 12,8 - - 31 17 - - S 1027,5 17 18 0,0
14.09.2019 18:00:00 16,4 12,8 - - 37 20 50 27 S 1027,3 18 60 0,0
14.09.2019 17:00:00 16,4 13,3 - - 31 17 - - SSW 1028,3 19 54 0,0
14.09.2019 16:00:00 17,9 13,6 - - 34 18 - - SSW 1028,8 17 60 0,0
14.09.2019 15:00:00 17,6 13,2 - - 34 18 - - SSW 1029,8 16 54 0,0
14.09.2019 14:00:00 17,6 13,3 - - 34 18 - - SSW 1030,4 10 12 0,0
14.09.2019 13:00:00 16,8 12,1 - - 34 18 - - SSW 1031,2 26 30 0,0
14.09.2019 12:00:00 17,0 11,5 - - 35 19 - - SSW 1031,5 30 60 0,0
14.09.2019 11:00:00 16,9 11,3 - - 34 18 - - S 1032,2 10 60 0,0
14.09.2019 10:00:00 15,9 12,1 14,2 15,2 26 14 - - S 1032,4 15 60 0,0
14.09.2019 09:00:00 14,9 11,1 - - 29 16 - - S 1032,6 24 60 0,0
14.09.2019 08:00:00 13,8 10,5 - - 26 14 - - S 1032,6 29 24 0,0
14.09.2019 07:00:00 8,8 7,9 - - 5 3 - - ESE 1032,7 10 0 0,0
14.09.2019 06:00:00 8,2 7,3 - - 4 2 - - ESE 1033,2 26 0 0,0
14.09.2019 05:00:00 7,8 6,6 - - 5 3 - - E 1034,1 30 0 0,0
14.09.2019 04:00:00 7,7 6,5 - - 4 2 - - E 1034,5 25 0 0,0
14.09.2019 03:00:00 7,5 6,0 - - 5 3 - - E 1035,3 10 0 0,0
14.09.2019 02:00:00 8,0 6,8 - - 5 3 - - ENE 1035,8 25 0 0,0
14.09.2019 01:00:00 8,6 7,2 - - 5 3 - - NNE 1036,0 20 - 0,0
14.09.2019 00:00:00 9,2 7,3 - - 8 4 - - ENE 1036,2 23 0 0,0
13.09.2019 23:00:00 9,5 7,5 - - 8 4 - - NE 1036,6 22 0 0,0
13.09.2019 22:00:00 9,8 7,4 - - 8 4 - - ENE 1036,8 10 0 0,0
13.09.2019 21:00:00 11,0 8,1 - - 11 6 - - E 1036,8 10 0 0,0
13.09.2019 20:00:00 13,1 8,5 - - 8 4 - - N 1037,1 28 30 0,0
13.09.2019 19:00:00 14,7 8,5 - - 9 5 - - NW 1037,0 27 60 0,0
13.09.2019 18:00:00 15,7 8,1 - - 9 5 - - NNW 1036,7 28 60 0,0
13.09.2019 17:00:00 15,7 7,6 - - 9 5 - - NNW 1036,7 10 60 0,0
13.09.2019 16:00:00 15,9 8,2 - - 15 8 - - NNW 1037,2 10 60 0,0
13.09.2019 15:00:00 15,7 8,7 - - 11 6 - - NW 1037,5 30 42 0,0
13.09.2019 14:00:00 15,4 7,7 - - 8 4 - - N 1037,3 10 24 0,0
13.09.2019 13:00:00 14,7 9,6 - - 11 6 - - NNW 1037,5 10 12 0,0
13.09.2019 12:00:00 16,0 8,8 - - 5 3 - - WSW 1037,2 10 48 0,0
13.09.2019 11:00:00 14,8 9,3 - - 11 6 - - N 1037,0 10 60 0,0
13.09.2019 10:00:00 14,1 9,5 14,9 15,2 9 5 - - NNW 1036,8 10 48 0,0
13.09.2019 09:00:00 12,4 10,3 - - 4 2 - - NNE 1036,2 10 60 0,0
13.09.2019 08:00:00 10,1 9,1 - - 13 7 - - WNW 1035,7 10 24 0,0
13.09.2019 07:00:00 8,5 6,7 - - 2 1 - - ENE 1035,1 10 0 0,0
13.09.2019 06:00:00 9,2 7,2 - - 4 2 - - E 1034,2 23 0 0,0
13.09.2019 05:00:00 9,4 7,5 - - 9 5 - - NNW 1033,8 25 0 0,0
13.09.2019 04:00:00 10,5 7,7 - - 13 7 - - N 1033,5 10 0 0,0
13.09.2019 03:00:00 10,4 8,1 - - 8 4 - - NNE 1033,1 30 0 0,0
13.09.2019 02:00:00 11,1 8,6 - - 11 6 - - N 1032,6 10 0 0,0
13.09.2019 01:00:00 12,1 9,5 - - 9 5 - - N 1032,0 40 - 0,0
13.09.2019 00:00:00 12,3 10,2 - - 8 4 - - NNE 1031,3 30 0 0,0
12.09.2019 23:00:00 12,6 10,3 - - 5 3 - - ENE 1030,8 30 0 0,0
12.09.2019 22:00:00 14,1 11,0 - - 9 5 - - N 1029,9 40 0 0,0
12.09.2019 21:00:00 14,2 12,1 - - 11 6 - - NNW 1029,0 40 0 0,0
12.09.2019 20:00:00 14,7 13,2 - - 15 8 - - N 1027,9 10 0 0,0
12.09.2019 19:00:00 14,8 13,4 - - 18 10 - - N 1026,4 28 0 0,0
12.09.2019 18:00:00 15,5 14,7 - - 24 13 50 27 NNW 1025,2 10 0 0,6
12.09.2019 17:00:00 16,6 15,7 - - 34 18 50 27 SW 1023,5 2,7 0 0,0
12.09.2019 16:00:00 17,0 15,8 - - 35 19 55 30 SW 1022,9 3,5 0 0,0
12.09.2019 15:00:00 16,8 15,6 - - 41 22 59 32 SW 1022,9 5 0 0,0
12.09.2019 14:00:00 16,7 15,3 - - 46 25 61 33 SSW 1022,6 6 0 0,0
12.09.2019 13:00:00 16,8 15,0 - - 46 25 59 32 SSW 1022,4 9 0 0,0
12.09.2019 12:00:00 16,7 15,4 - - 48 26 63 34 SSW 1022,4 10 0 0,0
12.09.2019 11:00:00 16,4 15,7 - - 46 25 59 32 SSW 1022,0 6 0 0,0
12.09.2019 10:00:00 16,3 15,4 15,7 15,2 44 24 57 31 SSW 1022,1 7 0 0,0
12.09.2019 09:00:00 16,2 15,2 - - 37 20 50 27 SSW 1021,9 10 0 0,0
12.09.2019 08:00:00 15,8 15,1 - - 37 20 50 27 SSW 1021,8 7 0 0,0
12.09.2019 07:00:00 15,8 14,5 - - 37 20 46 25 SSW 1021,7 10 0 0,0
12.09.2019 06:00:00 15,6 13,9 - - 29 16 - - SSW 1021,7 8 0 0,0
12.09.2019 05:00:00 15,6 12,7 - - 24 13 - - SSW 1021,8 18 0 0,0
12.09.2019 04:00:00 15,6 12,4 - - 22 12 - - SSW 1021,9 17 0 0,0
12.09.2019 03:00:00 15,4 12,1 - - 22 12 - - SW 1022,1 17 0 0,0
12.09.2019 02:00:00 15,6 12,3 - - 24 13 - - WSW 1022,4 20 0 0,0
12.09.2019 01:00:00 15,4 12,2 - - 18 10 - - WSW 1022,0 23 - 0,0
12.09.2019 00:00:00 15,6 12,4 - - 21 11 - - WSW 1021,9 24 0 0,0
11.09.2019 23:00:00 15,5 12,1 - - 18 10 - - WSW 1021,5 25 0 0,0
11.09.2019 22:00:00 15,8 12,3 - - 15 8 - - SW 1021,5 10 0 0,0
11.09.2019 21:00:00 15,9 12,1 - - 16 9 - - SW 1021,3 10 0 0,0
11.09.2019 20:00:00 16,5 13,0 - - 18 10 - - SW 1020,6 10 0 0,0
11.09.2019 19:00:00 16,8 12,5 - - 15 8 - - SW 1020,1 17 12 0,0
11.09.2019 18:00:00 16,8 12,5 - - 18 10 - - SSW 1019,7 10 30 0,0
11.09.2019 17:00:00 17,6 12,7 - - 15 8 - - SSW 1019,4 10 24 0,0
11.09.2019 16:00:00 17,6 12,3 - - 18 10 - - WSW 1019,1 10 48 0,0
11.09.2019 15:00:00 18,5 13,1 - - 24 13 - - SW 1018,7 10 42 0,0
11.09.2019 14:00:00 17,6 12,5 - - 18 10 - - SW 1018,1 10 24 0,0
11.09.2019 13:00:00 17,9 12,7 - - 31 17 - - WSW 1017,3 10 60 0,0
11.09.2019 12:00:00 16,8 12,4 - - 31 17 - - W 1017,0 10 60 0,0
11.09.2019 11:00:00 16,9 13,4 - - 29 16 - - W 1016,3 10 60 0,0
11.09.2019 10:00:00 16,3 13,1 15,5 15,2 34 18 46 25 W 1015,6 10 24 0,0
11.09.2019 09:00:00 15,6 13,6 - - 31 17 50 27 W 1014,9 8 0 0,4
11.09.2019 08:00:00 16,2 15,4 - - 35 19 52 28 SW 1013,5 10 0 0,0
11.09.2019 07:00:00 16,0 15,3 - - 39 21 55 30 SW 1012,9 10 0 0,4
11.09.2019 06:00:00 15,9 15,2 - - 46 25 59 32 SSW 1012,6 4,6 0 0,0
11.09.2019 05:00:00 16,0 15,4 - - 41 22 55 30 SSW 1012,5 6 0 0,8
11.09.2019 04:00:00 15,8 15,3 - - 46 25 61 33 SSW 1013,1 5 0 0,0
11.09.2019 03:00:00 15,8 15,2 - - 42 23 59 32 SSW 1013,7 5 0 0,0
11.09.2019 02:00:00 15,6 15,1 - - 50 27 67 36 SSW 1014,4 5 0 0,2
11.09.2019 01:00:00 15,3 14,7 - - 48 26 63 34 SSW 1014,6 2,4 - 1,2
11.09.2019 00:00:00 15,2 14,1 - - 54 29 67 36 SSW 1015,3 5 0 0,2
10.09.2019 23:00:00 15,4 13,2 - - 46 25 63 34 SSW 1016,4 7 0 0,0
10.09.2019 22:00:00 15,1 12,5 - - 46 25 61 33 SSW 1017,0 9 0 0,0
10.09.2019 21:00:00 14,8 11,5 - - 46 25 55 30 SSW 1017,6 10 0 0,0
10.09.2019 20:00:00 14,0 11,5 - - 44 24 54 29 SSW 1018,0 9 0 0,0
10.09.2019 19:00:00 13,8 10,1 - - 37 20 50 27 SSW 1018,5 15 0 0,0
10.09.2019 18:00:00 14,6 8,8 - - 37 20 46 25 SSW 1019,2 10 0 0,0
10.09.2019 17:00:00 14,7 8,0 - - 28 15 - - SSW 1019,5 10 0 0,0
10.09.2019 16:00:00 14,8 7,3 - - 24 13 - - SSW 1020,1 10 24 0,0
10.09.2019 15:00:00 15,8 9,3 - - 21 11 - - SW 1020,6 10 60 0,0
10.09.2019 14:00:00 15,0 9,7 - - 16 9 - - SW 1020,8 10 60 0,0
10.09.2019 13:00:00 15,0 9,6 - - 18 10 - - WSW 1020,8 10 54 0,0
10.09.2019 12:00:00 15,0 9,5 - - 16 9 - - W 1020,8 10 36 0,0
10.09.2019 11:00:00 13,8 9,1 - - 13 7 - - W 1021,1 10 30 0,0
10.09.2019 10:00:00 14,2 9,6 15,0 15,2 13 7 - - WNW 1020,7 10 36 0,0
10.09.2019 09:00:00 13,4 9,6 - - 13 7 - - WNW 1020,8 10 42 0,0
10.09.2019 08:00:00 12,6 9,2 - - 11 6 - - NW 1019,9 10 30 0,0
10.09.2019 07:00:00 12,1 9,0 - - 15 8 - - NW 1019,2 10 0 0,0
10.09.2019 06:00:00 12,3 9,4 - - 13 7 - - NNW 1018,8 17 0 0,0
10.09.2019 05:00:00 12,1 9,2 - - 11 6 - - N 1018,2 16 0 0,0
10.09.2019 04:00:00 13,2 10,1 - - 16 9 - - NNW 1018,1 17 0 0,0
10.09.2019 03:00:00 13,3 10,1 - - 18 10 - - NNW 1017,8 16 0 0,0
10.09.2019 02:00:00 13,5 10,5 - - 21 11 - - NNW 1017,2 18 0 0,0
10.09.2019 01:00:00 13,7 10,4 - - 22 12 - - NNW 1017,0 21 - 0,0
10.09.2019 00:00:00 13,9 10,7 - - 22 12 - - N 1016,5 17 0 0,0
09.09.2019 23:00:00 14,1 10,5 - - 24 13 46 25 N 1016,2 16 0 0,0
09.09.2019 22:00:00 14,3 10,7 - - 31 17 - - N 1015,4 10 0 0,0
09.09.2019 21:00:00 14,4 10,6 - - 29 16 46 25 N 1014,7 17 0 0,0
09.09.2019 20:00:00 14,5 10,7 - - 31 17 - - N 1013,7 19 0 0,0
09.09.2019 19:00:00 14,8 10,9 - - 31 17 46 25 NNW 1013,0 10 6 0,0
09.09.2019 18:00:00 15,1 10,8 - - 29 16 - - NNW 1011,9 18 0 0,0
09.09.2019 17:00:00 15,1 10,4 - - 29 16 46 25 N 1011,3 10 0 0,0
09.09.2019 16:00:00 15,7 11,0 - - 35 19 50 27 NNW 1010,7 10 0 0,0
09.09.2019 15:00:00 15,6 11,6 - - 29 16 - - NNW 1010,2 10 6 0,0
09.09.2019 14:00:00 15,3 12,0 - - 31 17 - - NNW 1009,8 10 0 0,0
09.09.2019 13:00:00 15,0 12,3 - - 26 14 - - NNW 1009,4 10 0 0,0
09.09.2019 12:00:00 15,1 12,6 - - 24 13 - - NNW 1009,0 10 0 0,0
09.09.2019 11:00:00 15,0 12,9 - - 21 11 - - NNW 1008,8 10 18 0,0
09.09.2019 10:00:00 15,0 13,4 15,2 15,4 18 10 - - NNW 1008,6 10 24 0,0
09.09.2019 09:00:00 13,7 13,1 - - 13 7 - - NW 1008,8 10 0 0,0

tt = temperature
td = dewpoint
tt -20cm = temperature -20cm
tt -100cm = temperature -100cm
ff = wind speed
fx = gusts
dd = wind direction
ppp = reduced air pressure
vv = visibility
sd = sunshine duration
rr = precipitation

Next stations